Reno - Stead, NV

1:08 AM PDT on September 26, 2017 (GMT -0700)
Reno - Stead

Weather History for KRTS - July, 2013

Change the Weather History Date:

Saturday, July 20, 2013

  Actual Average (KRNO) Record (KRNO)
Temperature  
Mean Temperature 79 °F -  
Max Temperature 98 °F 91 °F 106 °F (1931)
Min Temperature 60 °F 51 °F 37 °F (1983)
Cooling Degree Days 14    
Growing Degree Days 29 (Base 50)    
Moisture  
Dew Point 35 °F    
Average Humidity 22    
Maximum Humidity 42    
Minimum Humidity 8    
Precipitation  
Precipitation 0.00 in - - ()
Sea Level Pressure  
Sea Level Pressure 30.06 in    
Wind  
Wind Speed 7 mph (WNW)    
Max Wind Speed 20 mph    
Max Gust Speed 29 mph    
Visibility 10 miles    
Events Rain    
Averages and records for this station are not official NWS values.
T = Trace of Precipitation, MM = Missing Value Source: NWS Daily Summary

Daily Weather History Graph

Daily Weather History Graph

Search for Another Location

Airport or City:

Trip Planner

Search our weather history database for the weather conditions in past years. The results will help you decide how hot, cold, wet, or windy it might be!

Date:

Astronomy

Jul. 20, 2013 Rise Set
Actual Time 5:48 AM PDT 8:22 PM PDT
Civil Twilight 5:17 AM PDT 8:53 PM PDT
Nautical Twilight 4:38 AM PDT 9:32 PM PDT
Astronomical Twilight 3:54 AM PDT 10:15 PM PDT
Moon 6:31 PM PDT (7/20) 3:33 AM PDT (7/20)
Length of Visible Light 15h 36m
Length of Day
14h 34m
Waxing Gibbous, 94% of the Moon is Illuminated
Jul 20
Waxing Gibbous
Jul 22
Full
Jul 29
Last Quarter
Aug 6
New
Aug 14
First Quarter

Hourly Weather History & Observations

Time (PDT) Temp. Dew Point Humidity Pressure Visibility Wind Dir Wind Speed Gust Speed Precip Events Conditions
12:15 AM 75.2 °F 35.6 °F 24% 30.10 in 10.0 mi WSW 5.8 mph - N/A   Clear
12:35 AM 73.4 °F 35.6 °F 25% 30.09 in 10.0 mi NW 8.1 mph - N/A   Clear
12:55 AM 73.4 °F 35.6 °F 25% 30.10 in 10.0 mi NNW 4.6 mph - N/A   Clear
1:15 AM 73.4 °F 37.4 °F 27% 30.10 in 10.0 mi WNW 8.1 mph - N/A   Clear
1:35 AM 71.6 °F 37.4 °F 29% 30.10 in 10.0 mi WNW 9.2 mph - N/A   Clear
1:55 AM 69.8 °F 37.4 °F 31% 30.10 in 10.0 mi NW 9.2 mph - N/A   Clear
2:15 AM 71.6 °F 37.4 °F 29% 30.10 in 10.0 mi NNW 6.9 mph - N/A   Clear
2:35 AM 68.0 °F 37.4 °F 33% 30.09 in 10.0 mi NW 8.1 mph - N/A   Clear
2:55 AM 69.8 °F 37.4 °F 31% 30.09 in 10.0 mi NW 9.2 mph - N/A   Clear
3:15 AM 64.4 °F 37.4 °F 37% 30.09 in 10.0 mi NNW 8.1 mph - N/A   Clear
3:35 AM 64.4 °F 37.4 °F 37% 30.09 in 10.0 mi NNW 8.1 mph - N/A   Clear
3:55 AM 64.4 °F 37.4 °F 37% 30.09 in 10.0 mi NW 9.2 mph - N/A   Clear
4:15 AM 64.4 °F 37.4 °F 37% 30.09 in 10.0 mi NNW 5.8 mph - N/A   Clear
4:35 AM 62.6 °F 37.4 °F 39% 30.09 in 10.0 mi NNW 6.9 mph - N/A   Clear
4:55 AM 62.6 °F 37.4 °F 39% 30.09 in 10.0 mi North 6.9 mph - N/A   Clear
5:15 AM 62.6 °F 37.4 °F 39% 30.09 in 10.0 mi NNW 8.1 mph - N/A   Clear
5:35 AM 62.6 °F 37.4 °F 39% 30.10 in 10.0 mi NNW 8.1 mph - N/A   Clear
5:55 AM 62.6 °F 37.4 °F 39% 30.10 in 10.0 mi North 8.1 mph - N/A   Clear
6:15 AM 60.8 °F 37.4 °F 42% 30.10 in 10.0 mi North 8.1 mph - N/A   Clear
6:35 AM 62.6 °F 37.4 °F 39% 30.10 in 10.0 mi North 8.1 mph - N/A   Clear
6:55 AM 66.2 °F 39.2 °F 37% 30.10 in 10.0 mi North 6.9 mph - N/A   Clear
7:15 AM 69.8 °F 39.2 °F 33% 30.11 in 10.0 mi NNE 4.6 mph - N/A   Clear
7:35 AM 71.6 °F 39.2 °F 31% 30.11 in 10.0 mi Calm Calm - N/A   Clear
7:55 AM 73.4 °F 41.0 °F 31% 30.11 in 10.0 mi Calm Calm - N/A   Clear
8:15 AM 73.4 °F 41.0 °F 31% 30.11 in 10.0 mi Calm Calm - N/A   Clear
8:35 AM 77.0 °F 41.0 °F 28% 30.11 in 10.0 mi Calm Calm - N/A   Clear
8:55 AM 78.8 °F 41.0 °F 26% 30.11 in 10.0 mi Calm Calm - N/A   Clear
9:15 AM 80.6 °F 39.2 °F 23% 30.11 in 10.0 mi Calm Calm - N/A   Clear
9:35 AM 82.4 °F 37.4 °F 20% 30.10 in 10.0 mi SE 3.5 mph - N/A   Clear
9:55 AM 82.4 °F 39.2 °F 21% 30.10 in 10.0 mi SE 3.5 mph - N/A   Clear
10:15 AM 84.2 °F 39.2 °F 20% 30.10 in 10.0 mi ESE 4.6 mph - N/A   Clear
10:35 AM 84.2 °F 37.4 °F 19% 30.10 in 10.0 mi Calm Calm - N/A   Clear
10:55 AM 86.0 °F 35.6 °F 17% 30.09 in 10.0 mi WSW 3.5 mph - N/A   Clear
11:15 AM 87.8 °F 32.0 °F 14% 30.09 in 10.0 mi East 5.8 mph - N/A Rain Light Rain
11:35 AM 89.6 °F 32.0 °F 13% 30.08 in 10.0 mi SW 4.6 mph - N/A Rain Light Rain
11:55 AM 91.4 °F 32.0 °F 12% 30.08 in 10.0 mi SSE 6.9 mph - N/A Rain Light Rain
12:15 PM 93.2 °F 30.2 °F 11% 30.07 in 10.0 mi SE 8.1 mph - N/A   Clear
12:35 PM 93.2 °F 28.4 °F 10% 30.07 in 10.0 mi SE 6.9 mph - N/A   Clear
12:55 PM 93.2 °F 28.4 °F 10% 30.06 in 10.0 mi South 3.5 mph - N/A   Clear
1:15 PM 95.0 °F 30.2 °F 10% 30.05 in 10.0 mi SSE 5.8 mph - N/A   Clear
1:35 PM 95.0 °F 28.4 °F 9% 30.05 in 10.0 mi ESE 4.6 mph - N/A   Clear
1:55 PM 95.0 °F 26.6 °F 9% 30.04 in 10.0 mi SSE 6.9 mph - N/A   Clear
2:15 PM 95.0 °F 26.6 °F 9% 30.03 in 10.0 mi WSW 4.6 mph - N/A   Clear
2:35 PM 98.6 °F 28.4 °F 8% 30.02 in 10.0 mi SSE 5.8 mph - N/A   Clear
2:55 PM 98.6 °F 28.4 °F 8% 30.02 in 10.0 mi SW 4.6 mph - N/A   Clear
3:15 PM 96.8 °F 28.4 °F 9% 30.01 in 10.0 mi West 9.2 mph - N/A   Clear
3:35 PM 95.0 °F 28.4 °F 9% 30.00 in 10.0 mi West 6.9 mph - N/A   Clear
3:55 PM 95.0 °F 28.4 °F 9% 30.00 in 10.0 mi WSW 6.9 mph - N/A   Clear
4:15 PM 93.2 °F 32.0 °F 11% 30.00 in 10.0 mi West 16.1 mph 24.2 mph N/A   Clear
4:35 PM 91.4 °F 32.0 °F 12% 30.00 in 10.0 mi West 19.6 mph 28.8 mph N/A   Clear
4:55 PM 93.2 °F 26.6 °F 9% 30.00 in 10.0 mi West 12.7 mph 24.2 mph N/A   Clear
5:15 PM 93.2 °F 24.8 °F 9% 30.00 in 10.0 mi West 19.6 mph 26.5 mph N/A   Clear
5:35 PM 93.2 °F 24.8 °F 9% 29.99 in 10.0 mi West 15.0 mph 26.5 mph N/A   Clear
5:55 PM 93.2 °F 24.8 °F 9% 30.00 in 10.0 mi SW 8.1 mph - N/A   Clear
6:15 PM 91.4 °F 26.6 °F 10% 29.99 in 10.0 mi SSW 15.0 mph 21.9 mph N/A   Clear
6:35 PM 93.2 °F 24.8 °F 9% 29.99 in 10.0 mi South 15.0 mph - N/A   Clear
6:55 PM 91.4 °F 35.6 °F 14% 30.00 in 10.0 mi NNW 19.6 mph - N/A   Clear
7:15 PM 91.4 °F 37.4 °F 15% 30.00 in 10.0 mi North 17.3 mph 23.0 mph N/A   Clear
7:35 PM 91.4 °F 32.0 °F 12% 30.00 in 10.0 mi NNW 12.7 mph - N/A   Clear
7:55 PM 91.4 °F 28.4 °F 10% 30.00 in 10.0 mi North 13.8 mph 27.6 mph N/A   Clear
8:15 PM 89.6 °F 28.4 °F 11% 30.00 in 10.0 mi NNW 10.4 mph 17.3 mph N/A   Clear
8:35 PM 84.2 °F 32.0 °F 15% 30.00 in 10.0 mi WNW 8.1 mph - N/A   Clear
8:55 PM 80.6 °F 35.6 °F 20% 30.01 in 10.0 mi WNW 5.8 mph - N/A   Clear
9:15 PM 80.6 °F 39.2 °F 23% 30.02 in 10.0 mi West 6.9 mph - N/A   Clear
9:35 PM 78.8 °F 37.4 °F 23% 30.02 in 10.0 mi North 6.9 mph - N/A   Clear
9:55 PM 80.6 °F 41.0 °F 24% 30.03 in 10.0 mi WNW 4.6 mph - N/A   Clear
10:15 PM 78.8 °F 44.6 °F 30% 30.03 in 10.0 mi West 4.6 mph - N/A   Clear
10:35 PM 80.6 °F 44.6 °F 28% 30.03 in 10.0 mi Calm Calm - N/A   Clear
10:55 PM 78.8 °F 48.2 °F 34% 30.04 in 10.0 mi NW 8.1 mph - N/A   Clear
11:15 PM 80.6 °F 48.2 °F 32% 30.04 in 10.0 mi NE 4.6 mph - N/A   Clear
11:35 PM 78.8 °F 46.4 °F 32% 30.05 in 10.0 mi NNE 4.6 mph - N/A   Clear
11:55 PM 77.0 °F 46.4 °F 34% 30.05 in 10.0 mi Calm Calm - N/A   Clear